TimeMST,TemperatureF,Dew PointF,Humidity,Sea Level PressureIn,VisibilityMPH,Wind Direction,Wind SpeedMPH,Gust SpeedMPH,PrecipitationIn,Events,Conditions,WindDirDegrees,DateUTC
12:53 AM,46.0,25.0,44,29.89,10.0,WNW,5.8,-,N/A,,Clear,290,2013-01-08 07:53:00
1:53 AM,43.0,27.0,53,29.90,10.0,NE,3.5,-,N/A,,Clear,40,2013-01-08 08:53:00
2:53 AM,44.1,25.0,47,29.91,10.0,Calm,Calm,-,N/A,,Clear,0,2013-01-08 09:53:00
3:53 AM,39.0,27.0,62,29.90,10.0,Calm,Calm,-,N/A,,Clear,0,2013-01-08 10:53:00
4:53 AM,39.9,26.1,58,29.92,10.0,ENE,3.5,-,N/A,,Clear,60,2013-01-08 11:53:00
5:53 AM,39.0,25.0,57,29.94,10.0,Calm,Calm,-,N/A,,Clear,0,2013-01-08 12:53:00
6:53 AM,39.0,26.1,60,29.97,10.0,Calm,Calm,-,N/A,,Clear,0,2013-01-08 13:53:00
7:53 AM,39.0,26.1,60,29.99,9.0,Calm,Calm,-,N/A,,Clear,0,2013-01-08 14:53:00
8:53 AM,45.0,27.0,49,30.02,10.0,Calm,Calm,-,N/A,,Clear,0,2013-01-08 15:53:00
9:53 AM,50.0,25.0,38,30.04,10.0,Calm,Calm,-,N/A,,Clear,0,2013-01-08 16:53:00
10:53 AM,53.1,21.9,30,30.04,10.0,SW,3.5,-,N/A,,Clear,230,2013-01-08 17:53:00
11:53 AM,57.0,23.0,27,30.01,10.0,SSW,4.6,-,N/A,,Clear,200,2013-01-08 18:53:00
12:53 PM,60.1,23.0,24,30.00,10.0,Calm,Calm,-,N/A,,Clear,0,2013-01-08 19:53:00
1:53 PM,63.0,19.9,19,29.98,10.0,WSW,4.6,-,N/A,,Clear,240,2013-01-08 20:53:00
2:53 PM,64.9,19.9,18,29.96,10.0,Calm,Calm,-,N/A,,Clear,0,2013-01-08 21:53:00
3:53 PM,66.0,18.0,16,29.97,10.0,SSW,3.5,-,N/A,,Clear,200,2013-01-08 22:53:00
4:53 PM,64.9,19.9,18,29.98,10.0,West,3.5,-,N/A,,Clear,270,2013-01-08 23:53:00
5:53 PM,62.1,19.9,20,29.99,10.0,Calm,Calm,-,N/A,,Clear,0,2013-01-09 00:53:00
6:53 PM,57.9,21.9,25,30.02,10.0,Calm,Calm,-,N/A,,Clear,0,2013-01-09 01:53:00
7:53 PM,57.0,23.0,27,30.04,10.0,North,4.6,-,N/A,,Clear,360,2013-01-09 02:53:00
8:53 PM,53.1,24.1,32,30.06,10.0,Calm,Calm,-,N/A,,Clear,0,2013-01-09 03:53:00
10:53 PM,48.9,27.0,43,30.09,10.0,Calm,Calm,-,N/A,,Clear,0,2013-01-09 05:53:00
11:53 PM,48.0,25.0,41,30.09,10.0,Calm,Calm,-,N/A,,Clear,0,2013-01-09 06:53:00